GWO459 Weather Reports


time (UTC)temp
C
wind
direction
speed
KPH
gust
KPH
rain 1hr
cm
rain 24hr
cm
rain mn
cm
humidity
%
barometer
mb
20260503214503 15 0 0.0 4.8 0.00 0.00 0.00 84 1034.2
20260503213818 14 0 0.0 1.6 0.00 0.00 0.00 90 1034.3
20260503212703 13 0 0.0 1.6 0.00 0.00 0.00 92 1034.3
20260503211803 12 0 0.0 0.0 0.00 0.00 0.00 93 1034.3
20260503210903 12 0 0.0 0.0 0.00 0.00 0.00 93 1034.3
20260503210003 12 0 0.0 0.0 0.00 0.00 0.00 93 1034.4
20260503205403 12 0 0.0 1.6 0.00 0.00 0.00 93 1034.3
20260503204503 11 0 0.0 0.0 0.00 0.00 0.00 93 1034.3
20260503203603 11 0 0.0 1.6 0.00 0.00 0.00 93 1034.3
20260503202703 11 0 0.0 1.6 0.00 0.00 0.00 93 1034.2
20260503202017 11 0 0.0 0.0 0.00 0.00 0.00 93 1034.2
20260503200903 11 0 0.0 0.0 0.00 0.00 0.00 93 1034.1
20260503200003 11 0 0.0 0.0 0.00 0.00 0.00 93 1034.0
20260503195403 10 0 0.0 0.0 0.00 0.00 0.00 93 1034.0
20260503194503 10 0 0.0 0.0 0.00 0.00 0.00 93 1034.0
20260503193603 10 0 0.0 0.0 0.00 0.00 0.00 93 1033.9
20260503192703 10 0 0.0 0.0 0.00 0.00 0.00 92 1033.8
20260503191803 10 0 0.0 0.0 0.00 0.00 0.00 92 1033.7
20260503191118 10 0 0.0 0.0 0.00 0.00 0.00 92 1033.7
20260503190003 10 0 0.0 1.6 0.00 0.00 0.00 92 1033.5
20260503185403 10 0 0.0 0.0 0.00 0.00 0.00 92 1033.4
20260503184503 10 0 0.0 0.0 0.00 0.00 0.00 92 1033.4
20260503183603 10 0 0.0 0.0 0.00 0.00 0.00 92 1033.2
20260503182704 10 0 0.0 0.0 0.00 0.00 0.00 92 1033.1
20260503181803 10 0 0.0 0.0 0.00 0.00 0.00 92 1033.1
20260503181117 10 0 0.0 0.0 0.00 0.00 0.00 92 1033.0
20260503180004 10 0 0.0 0.0 0.00 0.00 0.00 92 1032.9
20260503175618 10 0 0.0 0.0 0.00 0.00 0.00 92 1032.9
20260503174503 10 0 0.0 0.0 0.00 0.00 0.00 91 1032.9
20260503173603 10 0 0.0 0.0 0.00 0.00 0.00 91 1032.9
20260503172703 10 0 0.0 0.0 0.00 0.00 0.00 91 1032.8
20260503172017 10 0 0.0 0.0 0.00 0.00 0.00 91 1032.9
20260503171117 10 0 0.0 0.0 0.00 0.00 0.00 91 1033.0
20260503150904 11 0 0.0 1.6 0.00 0.00 0.00 92 1033.6
20260503150219 11 0 0.0 0.0 0.00 0.00 0.00 92 1033.7
20260503140217 10 0 0.0 0.0 0.00 0.00 0.00 92 1034.2
20260503130903 9 0 0.0 0.0 0.00 0.00 0.00 91 1034.2
20260503130217 9 0 0.0 0.0 0.00 0.00 0.00 91 1034.2
20260503110218 8 0 0.0 0.0 0.00 0.00 0.00 89 1033.8
20260503080903 10 0 0.0 0.0 0.00 0.00 0.00 85 1032.4
20260503072703 11 0 0.0 0.0 0.00 0.00 0.00 82 1032.2
20260503072018 11 0 0.0 0.0 0.00 0.00 0.00 82 1032.2
20260503070903 11 0 0.0 0.0 0.00 0.00 0.00 82 1032.2
20260503054717 15 0 0.0 3.2 0.00 0.00 0.00 73 1031.8
20260503053603 16 0 0.0 1.6 0.00 0.00 0.00 70 1031.7
20260503052918 16 0 0.0 0.0 0.00 0.00 0.00 69 1031.6
20260503051803 16 53 1.6 1.6 0.00 0.00 0.00 67 1031.5
20260503050903 17 55 3.2 6.4 0.00 0.00 0.00 66 1031.5
20260503050003 17 55 3.2 8.0 0.00 0.00 0.00 64 1031.4
20260503045403 17 53 3.2 8.0 0.00 0.00 0.00 64 1031.4
20260503044503 18 51 4.8 6.4 0.00 0.00 0.00 63 1031.4
20260503043603 18 50 4.8 9.7 0.00 0.00 0.00 62 1031.4
20260503042703 18 43 4.8 11.3 0.00 0.00 0.00 61 1031.4
20260503041803 18 45 3.2 8.0 0.00 0.00 0.00 60 1031.5
20260503040903 19 55 4.8 9.7 0.00 0.00 0.00 60 1031.4
20260503040217 19 32 4.8 11.3 0.00 0.00 0.00 61 1031.4
20260503035441 19 29 3.2 11.3 0.00 0.00 0.00 59 1031.4
20260503034504 20 32 3.2 8.0 0.00 0.00 0.00 58 1031.3
20260503033818 19 342 3.2 11.3 0.00 0.00 0.00 58 1031.3
20260503032703 20 20 3.2 11.3 0.00 0.00 0.00 58 1031.3
20260503031803 20 28 4.8 11.3 0.00 0.00 0.00 57 1031.4
20260503030906 20 35 4.8 9.7 0.00 0.00 0.00 56 1031.4
20260503030004 20 46 4.8 12.9 0.00 0.00 0.00 57 1031.4
20260503025403 20 23 4.8 12.9 0.00 0.00 0.00 57 1031.5
20260503024503 20 20 3.2 11.3 0.00 0.00 0.00 57 1031.5
20260503023817 20 7 3.2 11.3 0.00 0.00 0.00 57 1031.6
20260503022916 20 313 3.2 11.3 0.00 0.00 0.00 57 1031.6
20260503021803 20 355 3.2 8.0 0.00 0.00 0.00 56 1031.6
20260503020903 20 36 4.8 9.7 0.00 0.00 0.00 56 1031.7
20260503020003 20 38 4.8 14.5 0.00 0.00 0.00 56 1031.8
20260503015403 20 24 4.8 14.5 0.00 0.00 0.00 55 1031.8
20260503014503 20 13 4.8 14.5 0.00 0.00 0.00 56 1031.9
20260503013603 20 13 4.8 12.9 0.00 0.00 0.00 53 1032.0
20260503012703 20 8 4.8 12.9 0.00 0.00 0.00 54 1032.1
20260503011803 20 4 4.8 14.5 0.00 0.00 0.00 53 1032.2
20260503010903 20 15 3.2 6.4 0.00 0.00 0.00 57 1032.2
20260503010003 20 18 3.2 12.9 0.00 0.00 0.00 56 1032.4
20260503005403 20 6 4.8 12.9 0.00 0.00 0.00 56 1032.5
20260503004503 20 12 4.8 12.9 0.00 0.00 0.00 57 1032.6
20260503003603 20 2 3.2 9.7 0.00 0.00 0.00 56 1032.7
20260503002703 20 338 3.2 8.0 0.00 0.00 0.00 54 1032.8
20260503001803 20 31 3.2 9.7 0.00 0.00 0.00 57 1033.0
20260503001119 19 18 3.2 8.0 0.00 0.00 0.00 59 1033.0
20260503000003 18 321 3.2 6.4 0.00 0.00 0.00 59 1033.2
20260502235617 18 297 3.2 9.7 0.00 0.00 0.00 60 1033.3
20260502234717 18 282 3.2 9.7 0.00 0.00 0.00 62 1033.4
20260502233603 18 272 3.2 6.4 0.00 0.00 0.00 60 1033.5
20260502232703 18 324 3.2 8.0 0.00 0.00 0.00 61 1033.6
20260502231803 18 269 4.8 9.7 0.00 0.00 0.00 61 1033.7
20260502231118 18 254 3.2 11.3 0.00 0.00 0.00 65 1033.7
20260502230003 18 275 3.2 6.4 0.00 0.00 0.00 62 1033.8
20260502225403 18 319 3.2 6.4 0.00 0.00 0.00 63 1033.8
20260502224503 18 268 3.2 8.0 0.00 0.00 0.00 62 1033.8
20260502223603 17 310 3.2 8.0 0.00 0.00 0.00 65 1033.9
20260502222703 17 246 3.2 6.4 0.00 0.00 0.00 66 1033.8
20260502221803 17 221 3.2 8.0 0.00 0.00 0.00 66 1033.9
20260502220903 16 272 1.6 8.0 0.00 0.00 0.00 68 1033.9
20260502220003 16 0 0.0 4.8 0.00 0.00 0.00 73 1033.9
20260502215403 16 0 0.0 0.0 0.00 0.00 0.00 75 1034.0